Theta_e
351 351 350 349 349 349 354 355 354 353 352 353 355 357 357 356 355 356 358 359 360 361 360 358 358 358 359 359 358 357 358 359 358 359 359 360 359 358 356 354 354 352
352 352 351 351 350 350 352 356 356 356 355 353 351 355 357 356 355 355 356 358 360 361 361 360 360 360 360 361 360 358 359 359 358 358 359 360 361 359 357 356 354 352
354 355 353 352 353 352 351 354 357 358 356 353 350 351 355 357 356 355 356 358 360 362 362 361 362 361 361 361 360 360 360 359 358 358 359 360 361 361 359 356 356 356
356 358 355 354 355 353 352 353 356 358 357 355 351 349 353 356 356 357 356 357 360 362 361 361 362 362 362 361 361 362 362 360 360 359 358 359 360 362 361 359 357 357
358 358 356 355 355 354 353 352 355 358 357 356 353 349 351 355 357 358 358 358 359 361 360 361 361 361 362 361 361 362 361 361 360 359 359 359 361 362 361 360 359 358
359 358 356 357 356 355 354 354 354 357 357 356 354 350 350 354 357 357 359 359 359 360 360 360 361 361 360 361 361 362 361 360 360 359 359 359 361 361 360 359 360 360
360 359 359 359 358 357 357 356 355 356 357 355 354 352 351 353 356 357 360 360 360 360 360 360 361 360 360 361 360 362 362 360 359 359 359 360 361 361 360 359 359 360
362 361 360 361 360 359 359 360 357 356 356 355 354 354 353 353 355 357 359 360 360 360 359 359 360 361 360 360 361 361 362 361 359 359 359 360 361 361 359 359 360 360
363 363 362 362 362 360 360 360 359 357 357 355 354 355 355 354 356 357 358 359 360 360 358 357 358 360 359 360 360 361 362 362 360 359 360 361 363 363 362 360 360 361
363 363 363 362 363 361 360 361 359 357 356 355 354 355 357 356 356 358 358 358 359 359 358 356 357 358 358 359 360 360 361 362 361 359 359 362 363 364 363 362 361 361
363 364 364 363 362 361 360 359 360 358 355 356 355 355 357 357 357 358 359 358 358 358 357 356 356 357 357 359 359 360 361 363 362 360 359 360 362 363 363 363 362 361
364 364 364 363 361 361 360 359 358 358 357 356 357 355 355 358 358 359 360 359 358 357 357 356 355 355 356 359 360 360 361 362 362 361 360 360 360 362 362 362 362 362
364 363 363 362 361 361 361 359 357 358 358 358 358 356 355 358 359 359 360 360 359 358 359 357 356 356 356 358 359 360 360 360 361 362 361 360 360 361 362 362 362 361
364 363 364 363 362 361 361 360 357 358 359 359 359 358 356 357 359 359 360 361 361 359 359 359 358 357 358 358 358 360 360 359 360 361 362 361 360 360 360 361 362 361
365 363 363 364 362 361 361 360 358 357 359 360 360 359 356 354 357 359 360 360 362 361 360 360 360 360 360 360 358 359 359 359 359 360 360 359 359 360 359 359 360 360
365 365 364 364 363 362 361 360 359 358 357 360 360 360 357 355 355 358 361 360 362 363 363 362 362 362 361 361 360 359 358 359 358 359 359 359 358 359 359 359 359 358
367 366 365 364 364 363 361 361 360 358 357 358 360 360 358 357 354 357 360 361 361 364 365 364 363 363 364 362 361 361 359 358 358 359 359 359 358 359 358 358 358 358
367 367 367 365 364 364 362 360 360 359 357 357 359 360 359 358 356 356 358 360 361 362 365 366 364 363 364 364 362 362 360 359 358 359 360 361 360 359 358 358 358 357
368 369 368 366 364 364 362 362 361 360 359 357 358 359 360 359 358 356 357 359 360 361 364 366 364 363 364 364 363 362 361 361 360 359 360 361 362 360 358 357 357 356
369 369 369 366 365 364 363 363 361 361 360 358 358 359 360 362 360 358 357 357 359 360 362 363 365 363 363 364 363 363 361 360 362 361 360 360 361 362 361 359 357 357
370 371 370 368 366 365 365 363 361 362 361 360 358 358 361 363 362 359 358 357 357 360 361 362 364 364 363 362 362 363 362 361 361 361 361 360 360 361 361 361 359 357
371 371 371 370 367 366 366 365 363 362 362 360 359 358 360 363 363 362 360 358 358 358 359 361 362 363 363 363 363 363 363 362 361 360 360 359 358 359 359 360 360 358
372 372 372 371 369 367 367 366 365 363 362 361 360 359 360 363 363 363 362 361 360 359 359 361 362 362 363 363 364 363 363 362 362 361 360 358 357 357 358 359 359 359
372 373 373 372 370 368 367 367 366 364 363 362 361 360 361 363 365 364 363 362 361 361 361 360 361 361 362 362 363 363 362 363 362 361 360 359 357 356 357 359 360 359
373 374 374 373 372 369 368 368 367 365 364 362 362 361 361 363 366 366 365 364 362 361 362 362 362 361 361 362 363 363 362 362 361 361 362 361 359 358 357 357 359 360
373 374 374 373 373 371 370 370 368 366 364 363 361 361 361 363 365 366 366 366 364 363 364 363 363 362 361 362 362 362 362 362 361 362 362 362 362 361 359 358 357 359
Wind_Speed
31 30 29 27 26 24 22 21 21 22 21 20 19 18 18 17 16 15 15 15 14 13 13 12 12 11 10 9 9 9 9 9 9 9 9 9 8 7 8 7 6 6
32 31 30 28 27 26 24 23 22 21 22 21 19 18 19 18 17 17 17 16 16 14 14 14 13 13 11 10 10 10 9 9 9 8 9 9 8 8 8 8 7 7
33 32 32 30 28 28 26 24 23 22 21 22 20 19 19 19 19 19 18 18 17 15 15 15 14 14 13 11 11 10 10 10 9 8 8 9 9 8 8 8 8 8
35 33 33 31 29 29 28 26 25 23 21 22 22 20 19 19 19 20 20 19 18 17 17 16 15 15 14 13 12 11 10 10 10 9 9 9 9 9 8 8 8 9
37 34 33 32 30 29 29 28 26 25 23 22 23 22 20 20 21 22 21 21 20 18 18 18 17 16 15 15 14 12 11 10 11 10 10 10 10 10 9 8 8 8
37 36 34 33 31 30 30 30 28 27 25 24 24 24 23 22 22 23 22 22 21 19 18 18 18 17 16 16 15 14 13 11 11 12 12 11 10 10 10 9 9 9
37 36 35 33 32 31 30 30 30 28 27 25 25 25 25 24 24 23 23 23 22 21 20 19 19 19 17 18 17 16 15 13 13 13 14 13 12 11 11 10 10 10
36 36 36 33 31 31 30 30 30 30 29 27 26 26 26 26 25 25 24 24 23 23 22 21 21 21 19 18 19 18 16 15 14 14 15 14 14 13 13 11 11 11
36 35 35 34 31 31 31 30 30 31 30 29 27 26 27 27 27 26 25 25 25 24 25 24 23 23 21 20 20 19 18 17 15 15 16 15 15 15 14 14 12 12
36 35 35 34 32 31 31 30 30 30 31 31 28 26 27 28 28 27 27 27 27 26 26 26 24 24 24 22 21 21 20 19 18 17 17 17 16 16 15 15 15 15
36 35 35 35 34 32 33 32 30 29 30 31 30 28 28 28 29 28 28 28 29 27 28 28 27 26 25 24 22 22 21 20 19 19 18 18 18 18 17 17 17 17
37 37 36 36 35 33 33 33 31 30 30 30 30 29 28 28 29 30 29 30 30 29 28 29 29 28 27 26 24 23 23 21 20 20 20 19 19 19 18 18 18 18
38 38 36 36 35 33 32 33 32 31 30 30 31 30 29 28 29 30 30 30 31 30 28 29 29 29 28 28 26 24 24 23 21 21 21 21 20 20 19 19 19 19
38 37 36 35 35 34 33 33 33 32 32 32 31 31 30 29 29 29 30 29 30 31 29 28 29 30 29 30 29 26 25 25 24 22 22 21 21 21 20 20 20 20
35 35 36 35 35 36 34 33 33 33 32 33 32 31 31 30 29 29 29 29 29 31 30 29 29 30 30 31 31 30 27 26 26 26 24 23 22 22 21 21 20 20
34 34 35 35 36 36 36 34 33 32 31 32 32 32 31 31 30 30 30 30 29 30 30 29 29 31 32 33 33 33 30 27 26 27 26 25 24 23 23 22 21 21
34 33 33 35 36 37 37 35 34 33 32 31 32 32 31 31 31 30 30 30 29 29 30 30 30 30 33 34 34 33 32 29 27 27 27 27 25 25 25 24 22 23
34 33 33 35 35 36 37 36 34 33 33 32 32 33 31 31 31 31 31 30 29 28 29 30 30 30 32 35 35 34 33 31 28 26 26 27 26 26 26 25 24 23
34 34 33 34 35 35 36 37 35 34 34 33 32 32 32 31 31 31 30 30 30 30 29 29 29 30 31 34 36 36 35 32 29 26 25 25 26 26 26 25 25 25
34 34 34 34 34 34 35 36 35 34 34 33 31 31 32 31 30 30 30 30 30 31 31 29 28 30 31 33 34 36 36 35 30 25 23 24 24 24 24 24 26 26
35 35 34 34 35 34 34 36 36 34 33 32 30 30 32 32 31 30 30 30 29 28 29 29 28 29 31 32 33 34 35 36 33 26 22 22 23 24 24 25 25 26
36 35 34 34 35 35 34 35 36 35 33 32 30 29 29 31 31 30 29 30 30 28 27 27 27 29 30 32 33 33 33 35 36 31 26 23 22 22 24 25 25 25
35 35 35 34 35 35 35 35 35 35 34 32 30 28 28 29 30 29 29 29 29 29 28 26 25 27 29 31 32 33 33 34 36 34 31 28 25 22 21 23 24 25
35 35 35 34 35 35 35 35 35 35 35 34 31 29 27 27 28 28 28 28 28 29 30 28 26 25 26 28 30 32 33 34 35 34 32 30 28 26 23 22 23 25
34 34 34 34 34 35 34 34 35 35 35 35 33 30 28 27 27 27 27 27 27 28 29 30 28 27 26 27 28 30 32 34 35 33 31 29 29 28 27 25 24 24
35 35 34 33 33 34 33 33 34 33 34 34 33 31 29 27 26 27 26 26 26 26 28 29 29 29 29 29 29 30 31 33 34 32 30 29 28 27 27 28 28 27
Wind_Direction
194 195 195 196 197 198 197 194 194 196 197 197 196 197 198 197 196 193 192 197 198 195 195 195 195 193 187 189 191 183 180 182 187 189 186 191 197 198 204 208 223 238
194 195 196 196 197 198 199 198 198 198 200 199 198 199 198 197 197 194 192 194 196 195 195 195 195 195 192 193 196 189 187 191 195 193 187 191 200 205 205 201 202 218
193 194 194 195 196 198 199 200 200 201 202 202 202 200 196 196 197 195 193 192 193 193 194 195 195 195 195 197 200 195 191 196 198 198 196 195 202 209 209 206 203 205
192 193 194 195 196 198 199 200 200 201 201 202 202 201 197 195 195 195 194 192 192 192 193 195 196 196 197 198 200 199 198 201 201 201 204 204 205 212 217 217 214 207
193 193 195 195 195 197 198 198 200 200 200 201 200 200 199 195 193 193 194 193 193 193 195 196 197 198 200 200 200 201 201 204 206 205 206 210 211 213 218 220 220 219
193 193 194 194 194 195 196 198 199 198 199 199 197 198 199 196 193 193 194 194 193 193 195 197 198 199 200 201 203 203 203 205 208 208 206 210 215 214 217 217 217 223
191 192 193 193 193 195 195 197 198 198 197 197 196 196 197 197 194 194 195 194 193 193 195 196 197 198 198 200 203 204 205 207 208 211 210 211 215 217 220 219 215 220
188 189 191 191 192 194 195 197 198 198 197 196 195 194 195 196 195 196 197 196 195 195 195 197 198 198 198 200 204 205 205 207 210 211 209 210 215 219 220 221 220 221
187 187 189 190 190 192 195 196 197 198 197 195 195 194 194 196 196 197 199 198 197 197 196 198 199 198 199 201 204 206 205 206 210 211 209 209 213 217 219 221 223 223
186 186 187 188 189 192 194 195 195 195 196 195 195 194 194 196 197 197 199 199 199 199 198 198 199 199 200 202 205 207 207 207 209 211 211 211 213 216 217 219 222 224
186 186 187 188 190 192 192 194 193 193 194 194 195 195 193 195 197 197 199 201 200 201 201 201 201 200 200 202 205 207 208 209 210 212 213 214 216 218 218 220 222 224
187 187 189 189 190 192 191 193 193 192 193 193 194 196 194 194 196 197 199 202 201 202 203 203 203 202 202 203 205 207 208 209 212 214 215 216 218 220 221 223 224 225
188 189 190 190 190 192 192 193 194 193 192 193 194 196 195 194 194 196 199 202 202 203 204 205 204 204 205 205 205 206 208 209 211 213 215 217 219 221 222 223 225 227
190 190 190 191 191 192 194 194 195 195 193 192 193 195 197 197 195 196 198 201 202 203 204 205 206 205 206 207 207 207 208 210 211 212 214 217 219 222 224 224 226 227
191 191 190 191 191 192 194 195 197 197 194 192 193 195 198 199 197 196 197 199 201 202 203 204 205 206 206 208 208 207 208 210 212 213 215 217 220 222 224 226 228 229
191 191 191 192 191 192 194 195 196 198 197 193 193 196 198 199 199 196 196 199 200 200 201 203 204 206 207 209 209 209 208 209 212 214 215 217 219 221 223 226 228 230
190 192 193 193 193 193 195 195 195 197 198 196 194 196 199 200 200 197 195 198 200 199 200 203 205 207 208 209 210 210 209 210 211 214 215 216 219 220 222 225 227 229
190 192 194 195 194 194 194 194 195 196 197 197 195 195 198 200 202 201 197 197 199 200 201 203 206 208 209 209 210 210 210 210 212 214 214 216 219 221 223 224 226 228
191 192 194 196 196 195 194 194 196 196 196 197 195 194 197 200 203 204 202 198 198 200 203 204 207 209 211 211 211 212 212 210 211 214 215 216 219 221 224 225 226 228
190 192 195 196 196 195 194 194 197 197 196 197 196 195 195 198 202 205 207 204 201 201 203 206 209 210 213 214 213 213 214 212 210 213 217 219 220 221 224 226 227 228
189 191 194 196 196 195 194 195 197 198 197 197 198 197 196 198 201 204 208 210 209 205 204 206 211 212 213 215 215 215 216 214 213 213 218 223 224 224 225 226 228 230
188 190 193 195 195 195 195 195 197 198 198 197 199 200 198 198 200 204 208 211 212 213 210 210 213 215 215 215 215 216 216 216 215 217 220 225 227 227 227 228 229 230
188 189 192 193 194 195 195 196 196 197 198 198 199 200 200 198 199 203 207 209 211 213 215 216 217 218 218 216 215 215 215 215 216 218 221 226 229 231 231 231 231 231
189 190 192 192 193 195 196 196 195 196 197 198 199 201 201 200 199 202 207 210 210 212 214 217 219 220 219 217 215 214 213 213 215 217 221 226 230 233 235 234 233 234
189 191 193 193 193 194 195 195 195 195 195 197 199 202 203 201 199 201 206 209 211 213 213 214 218 222 221 218 215 214 213 213 213 215 218 224 228 232 235 235 235 236
190 192 194 195 193 192 193 194 193 193 195 196 198 201 204 202 199 199 204 208 211 214 215 214 216 220 223 220 216 214 213 212 211 211 215 220 224 228 231 233 234 236